Location: Evergreen Manor
(41.4083°N, 81.4939°W)
Time: 07:48:17
(UTC+00:00)

Nadezhda 4 Rocket - Pass Details

Date: 11 December 2019
Orbit: 949 x 993 km, 82.9° (Epoch: 24 January)

Event Time Altitude Azimuth Distance (km) Brightness Sun altitude
Exits shadow 09:45:56 54° 30° (NNE) 1,159 4.4 -32.1°
Maximum altitude 09:47:09 66° 81° (E) 1,048 4.2 -31.9°
Drops below altitude 10° 09:53:13 10° 163° (SSE) 2,674 6.5 -30.7°
Sets 09:55:43 0° 166° (SSE) 3,612 7.2 -30.3°
